OPS 4682 DEB, 38364

Orbit data source: Space-Track

OPS 4682 DEB, 38364 is space debris in LEO originally from a launch on Sat, 03 Apr 1965 UTC launched from the Air Force Western Test Range (AFWTR). Debris objects in space refer to the collection of defunct objects orbiting the Earth. Examples of debris include non-operational satellites, rocket bodies, and fragments generated from explosions, collisions, or faulty payload assembly.

Loading next visibility...
Identifier
38364, 1965-027BR
Orbit
LEO
Country
Flag of USUS
Related business
Manufacturer
Unknown
Mission
Spacecraft
Bus & Motor
Unknown
Mass
Unknown
Launch date (UTC)
1965-04-03 (61 years ago)
Launch vehicle
Unknown
Launch site
Air Force Western Test Range (AFWTR)
Object type
Payload
Rocket body
Debris
Shape & HBR
Unknown shape, 0.1 m
Radar Cross Section
Small (<0.1 m²)

Expand to show TLE details & history
Last TLE update: 10 hours ago

TLE from 10 hours ago
0 OPS 4682 DEB
1 38364U 65027BR  25293.15811442 -.00000054  00000-0 -21433-3 0  9998
2 38364  90.2497   6.4214 0033554  31.7059 328.6073 12.96363697631471
Epoch: 2025-10-20T03:47Z
TLE epoch observation values (Epoch: 2025-10-20T03:47:41.085Z)
Latitude
-0.00002°
Longitude
-79.36423°
Altitude
1,257.341 km
Speed
7.237 km/s
True Right ascension
00h 25m 41s
True Declination
0° 00' 00"
Sunlit
Object was in full shadow at epoch
Visualization orbit readout
Latitude
Unknown
Longitude
Unknown
Altitude
Unknown
Speed
Unknown
Apparent Right ascension
Unknown
Apparent Declination
Unknown
Sunlit
N/A
Visualization observer readout
Local Sidereal Time
08:28:36
Azimuth
Unknown
Elevation
Unknown
Doppler factor
Unknown
Orbital elements
Apogee altitude
1,299.174 km
Perigee altitude
1,247.825 km
Semi-major axis
7,651.637 km
Eccentricity
0.00336
Inclination
90.2497°
RAAN
6.4214°
Arg. of periapsis
31.7059°
True anomaly
328.40629°
Mean anomaly
328.6073°
Eccentric anomaly
328.50687°
Mean motion
3.24274 °/min
Orbital period
111.02 mins
BSTAR
-0.00021433
Loading maneuver chart data...
Computing Atmospheric mass density...
Loading historical data...
Loading historical data...
Loading historical data...
Loading historical data...
Loading historical data...
Loading historical data...
Loading historical data...

Documentation

Showing up to 5 results
|